User: anonymous   Login
Location: Unspecified
(0.0000°N, 0.0000°E)
Time: 00:08:10
(UTC+00:00)
Language:

MAROC-TUBSAT - Orbit

View from above orbital plane
View from above orbital plane
View from above satellite
View from above satellite

Ground track
Ground track

The orbit data is extracted from the following two-line orbital elements,

1 27004U 01056D   17265.86314039 -.00000033  00000-0  11867-4 0  9994
2 27004  99.3725  43.0660 0020717  83.3712  39.0645 13.70124494789422
Epoch (UTC): 22 September 2017 20:42:55
Eccentricity: 0.0020717
inclination: 99.3725°
perigee height: 984 km
apogee height: 1014 km
right ascension of ascending node: 43.0660°
argument of perigee: 83.3712°
revolutions per day: 13.70124494
mean anomaly at epoch: 39.0645°
orbit number at epoch: 78942

The dashed part of the orbit path shows where the satellite is in the earth's shadow,  

DLR